CW1621 Weather Reports


Display with metric or nautical units.
time (UTC)temp
F
wind
direction
speed
MPH
gust
MPH
rain 1hr
in
rain 24hr
in
rain mn
in
humidity
%
barometer
mb
20180426153601 52 101 6.0 7.0 0.00 0.00 0.00 67 1024.3
20180426153101 52 101 6.0 10.0 0.00 0.00 0.00 65 1024.4
20180426151602 51 108 6.0 9.0 0.00 0.00 0.00 66 1024.6
20180426151102 51 111 6.0 9.0 0.00 0.00 0.00 66 1023.8
20180426150602 50 114 6.0 7.0 0.00 0.00 0.00 65 1023.9
20180426150102 50 115 6.0 7.0 0.00 0.00 0.00 65 1023.9
20180426144603 49 101 3.0 6.0 0.00 0.00 0.00 68 1024.3
20180426144102 49 101 5.0 6.0 0.00 0.00 0.00 68 1024.3
20180426143601 49 102 5.0 6.0 0.00 0.00 0.00 70 1024.2
20180426143101 48 103 5.0 6.0 0.00 0.00 0.00 71 1024.2
20180426141603 48 99 5.0 6.0 0.00 0.00 0.00 72 1024.1
20180426141104 47 64 3.0 5.0 0.00 0.00 0.00 74 1023.9
20180426140602 47 63 3.0 3.0 0.00 0.00 0.00 74 1023.9
20180426140102 46 36 1.0 3.0 0.00 0.00 0.00 75 1023.9
20180426134602 45 36 3.0 3.0 0.00 0.00 0.00 70 1024.1
20180426134101 45 35 3.0 3.0 0.00 0.00 0.00 69 1024.1
20180426133601 44 22 3.0 3.0 0.00 0.00 0.00 69 1024.0
20180426133102 44 311 0.0 1.0 0.00 0.00 0.00 69 1024.0
20180426131602 42 311 0.0 0.0 0.00 0.00 0.00 73 1024.3
20180426131102 42 311 0.0 0.0 0.00 0.00 0.00 73 1023.7
20180426130602 41 309 0.0 0.0 0.00 0.00 0.00 73 1023.7
20180426130102 41 309 0.0 0.0 0.00 0.00 0.00 73 1023.7
20180426124602 42 309 0.0 3.0 0.00 0.00 0.00 71 1023.5
20180426124102 42 309 3.0 3.0 0.00 0.00 0.00 71 1023.5
20180426123602 42 309 2.0 3.0 0.00 0.00 0.00 72 1023.6
20180426123102 42 309 1.0 3.0 0.00 0.00 0.00 72 1023.6
20180426121602 43 309 0.0 0.0 0.00 0.00 0.00 71 1023.3
20180426121102 43 309 0.0 3.0 0.00 0.00 0.00 71 1023.3
20180426120602 43 309 3.0 3.0 0.00 0.00 0.00 71 1023.3
20180426120103 43 309 2.0 3.0 0.00 0.00 0.00 71 1023.2
20180426114602 42 309 0.0 0.0 0.00 0.00 0.00 74 1023.6
20180426114101 41 309 0.0 0.0 0.00 0.00 0.00 75 1023.5
20180426113602 42 309 2.0 3.0 0.00 0.00 0.00 74 1023.4
20180426113102 42 309 0.0 3.0 0.00 0.00 0.00 73 1023.4
20180426111602 42 309 0.0 5.0 0.00 0.00 0.00 74 1023.5
20180426111102 43 309 1.0 5.0 0.00 0.00 0.00 73 1023.3
20180426110602 43 309 0.0 0.0 0.00 0.00 0.00 72 1023.2
20180426110102 43 309 0.0 0.0 0.00 0.00 0.00 72 1023.2
20180426104602 42 309 1.0 3.0 0.00 0.00 0.00 76 1023.3
20180426104102 42 309 2.0 3.0 0.00 0.00 0.00 77 1023.3
20180426103602 42 309 2.0 3.0 0.00 0.00 0.00 76 1023.3
20180426103102 42 309 2.0 3.0 0.00 0.00 0.00 76 1023.2
20180426101602 43 309 0.0 0.0 0.00 0.00 0.00 75 1023.2
20180426101102 44 309 0.0 0.0 0.00 0.00 0.00 73 1023.1
20180426100602 44 309 0.0 0.0 0.00 0.00 0.00 73 1023.2
20180426100102 44 309 0.0 0.0 0.00 0.00 0.00 73 1023.1
20180426094602 44 309 0.0 0.0 0.00 0.00 0.00 74 1023.1
20180426094102 44 309 0.0 0.0 0.00 0.00 0.00 74 1023.1
20180426093602 44 309 0.0 0.0 0.00 0.00 0.00 74 1023.1
20180426093101 44 309 1.0 3.0 0.00 0.00 0.00 74 1023.2
20180426091602 43 309 0.0 0.0 0.00 0.00 0.00 75 1023.4
20180426091102 43 309 0.0 0.0 0.00 0.00 0.00 75 1023.7
20180426090602 44 309 0.0 3.0 0.00 0.00 0.00 75 1023.4
20180426090102 44 309 2.0 3.0 0.00 0.00 0.00 76 1023.4
20180426084602 43 309 0.0 0.0 0.00 0.00 0.00 78 1023.8
20180426084101 43 309 0.0 0.0 0.00 0.00 0.00 77 1023.8
20180426083602 43 309 0.0 0.0 0.00 0.00 0.00 78 1023.7
20180426083101 43 309 0.0 2.0 0.00 0.00 0.00 78 1023.8
20180426081602 43 311 0.0 0.0 0.00 0.00 0.00 79 1023.9
20180426081102 43 311 0.0 3.0 0.00 0.00 0.00 78 1023.5
20180426080602 43 311 2.0 3.0 0.00 0.00 0.00 78 1023.5
20180426080102 43 311 0.0 0.0 0.00 0.00 0.00 78 1023.5
20180426074602 43 311 0.0 0.0 0.00 0.00 0.00 79 1023.6
20180426074102 43 311 0.0 0.0 0.00 0.00 0.00 78 1023.6
20180426073602 44 311 0.0 0.0 0.00 0.00 0.00 77 1023.7
20180426073102 44 311 0.0 0.0 0.00 0.00 0.00 76 1023.6
20180426071602 45 311 0.0 0.0 0.00 0.00 0.00 76 1023.3
20180426071103 45 311 2.0 3.0 0.00 0.00 0.00 75 1023.6
20180426070602 45 311 2.0 3.0 0.00 0.00 0.00 73 1023.4
20180426070102 46 311 2.0 3.0 0.00 0.00 0.00 73 1023.3
20180426064602 44 311 2.0 3.0 0.00 0.00 0.00 77 1023.6
20180426064102 44 311 2.0 3.0 0.00 0.00 0.00 77 1023.6
20180426063602 45 311 2.0 3.0 0.00 0.00 0.00 76 1023.6
20180426063102 47 311 0.0 0.0 0.00 0.00 0.00 72 1023.2
20180426061602 47 311 0.0 0.0 0.00 0.00 0.00 71 1023.3
20180426061103 46 311 0.0 1.0 0.00 0.00 0.00 74 1023.7
20180426060603 47 311 1.0 2.0 0.00 0.00 0.00 74 1023.5
20180426060103 47 311 1.0 2.0 0.00 0.00 0.00 73 1023.4
20180426054602 47 311 1.0 2.0 0.00 0.00 0.00 72 1023.5
20180426054102 47 311 2.0 2.0 0.00 0.00 0.00 72 1023.4
20180426053602 47 311 1.0 2.0 0.00 0.00 0.00 73 1023.4
20180426053102 47 311 1.0 2.0 0.00 0.00 0.00 73 1023.4
20180426051603 48 311 1.0 2.0 0.00 0.00 0.00 71 1023.5
20180426051102 49 311 1.0 2.0 0.00 0.00 0.00 70 1023.4
20180426050602 49 311 1.0 1.0 0.00 0.00 0.00 67 1023.5
20180426050102 49 311 1.0 2.0 0.00 0.00 0.00 68 1023.3
20180426044603 50 311 2.0 2.0 0.00 0.00 0.00 64 1023.3
20180426044103 50 311 1.0 2.0 0.00 0.00 0.00 67 1023.4
20180426043603 50 311 1.0 2.0 0.00 0.00 0.00 67 1023.4
20180426043103 50 311 1.0 2.0 0.00 0.00 0.00 68 1023.4
20180426041603 51 311 1.0 2.0 0.00 0.00 0.00 65 1023.3
20180426041102 52 311 1.0 2.0 0.00 0.00 0.00 62 1022.9
20180426040603 53 311 1.0 2.0 0.00 0.00 0.00 57 1022.6
20180426040103 54 311 1.0 2.0 0.00 0.00 0.00 56 1022.5
20180426034602 55 311 1.0 2.0 0.00 0.00 0.00 53 1022.1
20180426034103 55 311 1.0 2.0 0.00 0.00 0.00 53 1022.1
20180426033603 56 311 0.0 2.0 0.00 0.00 0.00 51 1022.1
20180426033103 56 311 0.0 0.0 0.00 0.00 0.00 49 1022.0
20180426031603 58 311 0.0 0.0 0.00 0.00 0.00 48 1021.7
20180426031102 58 311 0.0 0.0 0.00 0.00 0.00 47 1022.1
20180426030602 58 311 0.0 0.0 0.00 0.00 0.00 46 1022.0
20180426030102 58 311 0.0 0.0 0.00 0.00 0.00 45 1021.8
20180426024602 59 311 0.0 0.0 0.00 0.00 0.00 45 1021.7
20180426024103 60 311 0.0 0.0 0.00 0.00 0.00 44 1021.6
20180426023603 60 311 0.0 0.0 0.00 0.00 0.00 43 1021.5
20180426023103 60 311 0.0 1.0 0.00 0.00 0.00 43 1021.5
20180426021602 61 311 0.0 2.0 0.00 0.00 0.00 41 1021.3
20180426021102 62 311 1.0 2.0 0.00 0.00 0.00 40 1022.1
20180426020603 62 311 0.0 2.0 0.00 0.00 0.00 41 1022.2
20180426020103 62 311 0.0 7.0 0.00 0.00 0.00 41 1022.1
20180426014603 64 307 2.0 6.0 0.00 0.00 0.00 37 1021.8
20180426014102 64 311 1.0 9.0 0.00 0.00 0.00 38 1021.9
20180426013602 65 355 0.0 3.0 0.00 0.00 0.00 38 1021.8
20180426013102 66 355 0.0 3.0 0.00 0.00 0.00 37 1021.5
20180426011603 67 352 1.0 3.0 0.00 0.00 0.00 35 1021.5
20180426011103 67 326 2.0 7.0 0.00 0.00 0.00 34 1021.5
20180426010603 67 291 0.0 3.0 0.00 0.00 0.00 35 1021.5
20180426010103 67 290 2.0 6.0 0.00 0.00 0.00 34 1021.5
20180426004602 68 310 2.0 6.0 0.00 0.00 0.00 31 1021.6
20180426004102 68 327 2.0 8.0 0.00 0.00 0.00 30 1021.6
20180426003602 68 327 1.0 3.0 0.00 0.00 0.00 34 1021.6
20180426003102 68 336 0.0 7.0 0.00 0.00 0.00 36 1021.6
20180426001603 67 318 1.0 10.0 0.00 0.00 0.00 37 1021.5
20180426001102 67 330 3.0 7.0 0.00 0.00 0.00 36 1021.5
20180426000602 68 331 3.0 12.0 0.00 0.00 0.00 37 1021.2
20180426000102 68 321 3.0 12.0 0.00 0.00 0.00 36 1021.2
20180425234602 68 310 1.0 9.0 0.00 0.00 0.00 37 1021.1
20180425234103 68 283 0.0 5.0 0.00 0.00 0.00 37 1021.1
20180425233603 68 301 1.0 9.0 0.00 0.00 0.00 38 1021.1
20180425233103 68 322 2.0 13.0 0.00 0.00 0.00 38 1021.1
20180425231602 68 303 2.0 12.0 0.00 0.00 0.00 37 1021.1
20180425231103 68 1 3.0 10.0 0.00 0.00 0.00 37 1021.8
20180425230602 68 321 2.0 10.0 0.00 0.00 0.00 38 1021.8
20180425230102 67 315 2.0 12.0 0.00 0.00 0.00 38 1021.8
20180425224602 68 311 2.0 12.0 0.00 0.00 0.00 37 1021.9
20180425224102 68 289 2.0 13.0 0.00 0.00 0.00 38 1021.8
20180425223602 68 324 3.0 12.0 0.00 0.00 0.00 39 1021.8
20180425223102 68 303 2.0 16.0 0.00 0.00 0.00 40 1021.9
20180425221602 66 279 3.0 12.0 0.00 0.00 0.00 44 1022.2
20180425221102 66 277 4.0 20.0 0.00 0.00 0.00 44 1021.8
20180425220603 66 280 7.0 20.0 0.00 0.00 0.00 45 1021.7
20180425220102 65 287 12.0 17.0 0.00 0.00 0.00 44 1021.9
20180425214602 65 286 6.0 13.0 0.00 0.00 0.00 44 1021.9
20180425214102 65 277 7.0 14.0 0.00 0.00 0.00 42 1021.9
20180425213602 64 267 15.0 22.0 0.00 0.00 0.00 40 1022.3
20180425213102 64 275 7.0 21.0 0.00 0.00 0.00 41 1022.3
20180425211602 65 289 2.0 15.0 0.00 0.00 0.00 44 1022.2
20180425211102 64 276 12.0 22.0 0.00 0.00 0.00 41 1022.2
20180425210602 64 274 12.0 20.0 0.00 0.00 0.00 44 1022.1
20180425210102 65 301 2.0 20.0 0.00 0.00 0.00 43 1021.9
20180425204603 65 303 2.0 15.0 0.00 0.00 0.00 43 1021.8
20180425204103 65 312 2.0 12.0 0.00 0.00 0.00 43 1021.8
20180425203602 64 319 2.0 16.0 0.00 0.00 0.00 44 1022.1
20180425203102 64 275 13.0 24.0 0.00 0.00 0.00 41 1022.0
20180425201603 64 277 6.0 20.0 0.00 0.00 0.00 41 1022.2
20180425201102 65 287 7.0 17.0 0.00 0.00 0.00 41 1022.1
20180425200602 65 311 2.0 15.0 0.00 0.00 0.00 42 1022.1
20180425200102 66 294 2.0 12.0 0.00 0.00 0.00 41 1022.2
20180425194603 65 321 3.0 9.0 0.00 0.00 0.00 41 1022.2
20180425194102 65 302 3.0 12.0 0.00 0.00 0.00 42 1022.2
20180425193602 65 273 7.0 13.0 0.00 0.00 0.00 40 1022.3
20180425193102 65 337 2.0 10.0 0.00 0.00 0.00 41 1022.3
20180425191602 64 304 5.0 12.0 0.00 0.00 0.00 37 1022.7
20180425191103 64 273 3.0 10.0 0.00 0.00 0.00 41 1022.4
20180425190603 62 271 2.0 10.0 0.00 0.00 0.00 41 1022.6
20180425190102 61 269 9.0 17.0 0.00 0.00 0.00 40 1022.8
20180425184602 63 284 1.0 9.0 0.00 0.00 0.00 40 1022.6
20180425184103 63 274 5.0 13.0 0.00 0.00 0.00 40 1022.6
20180425183603 63 275 5.0 13.0 0.00 0.00 0.00 43 1022.6
20180425183102 63 280 5.0 16.0 0.00 0.00 0.00 40 1022.6
20180425181603 62 280 3.0 9.0 0.00 0.00 0.00 42 1022.5
20180425181103 61 278 10.0 17.0 0.00 0.00 0.00 42 1022.8
20180425180602 62 274 12.0 15.0 0.00 0.00 0.00 40 1022.8
20180425180103 62 274 5.0 18.0 0.00 0.00 0.00 44 1022.7
20180425174603 61 276 7.0 14.0 0.00 0.00 0.00 44 1022.6
20180425174103 61 274 9.0 15.0 0.00 0.00 0.00 41 1022.6
20180425173603 61 277 5.0 12.0 0.00 0.00 0.00 42 1022.5
20180425173103 61 277 12.0 20.0 0.00 0.00 0.00 42 1022.5
20180425171602 60 268 9.0 15.0 0.00 0.00 0.00 42 1022.7
20180425171102 60 255 10.0 16.0 0.00 0.00 0.00 40 1022.5
20180425170602 60 266 7.0 14.0 0.00 0.00 0.00 42 1022.5
20180425170102 60 263 10.0 16.0 0.00 0.00 0.00 41 1022.4
20180425164602 59 265 9.0 15.0 0.00 0.00 0.00 41 1022.7
20180425164103 59 264 5.0 10.0 0.00 0.00 0.00 40 1022.7
20180425163603 60 280 5.0 7.0 0.00 0.00 0.00 42 1022.4
20180425163102 63 294 3.0 6.0 0.00 0.00 0.00 36 1022.1
20180425161603 63 305 0.0 0.0 0.00 0.00 0.00 45 1021.9
20180425161103 63 305 0.0 1.0 0.00 0.00 0.00 45 1021.4
20180425160602 63 305 0.0 0.0 0.00 0.00 0.00 44 1021.5
20180425160102 62 305 0.0 3.0 0.00 0.00 0.00 45 1021.4
20180425154602 60 240 0.0 2.0 0.00 0.00 0.00 47 1021.7
20180425154102 59 239 0.0 3.0 0.00 0.00 0.00 48 1021.9